Weather History for Canby, MN

Change the Weather History Date:

Tuesday, January 8, 2013

  Actual Average (KMML) Record (KMML)
Temperature  
Mean Temperature 26 °F -  
Max Temperature 36 °F 17 °F 57 °F (2003)
Min Temperature 16 °F -1 °F -21 °F (1976)
Degree Days  
Heating Degree Days 39    
Moisture  
Dew Point 24 °F    
Average Humidity 80    
Maximum Humidity 93    
Minimum Humidity 67    
Precipitation  
Precipitation 0.00 in - - ()
Sea Level Pressure  
Sea Level Pressure 29.82 in    
Wind  
Wind Speed 7 mph (SSW)    
Max Wind Speed 22 mph    
Max Gust Speed 28 mph    
Visibility 10 miles    
Events      
Averages and records for this station are not official NWS values.
T = Trace of Precipitation, MM = Missing Value Source: NWS Daily Summary

Daily Weather History Graph

Daily Weather History Graph

Search for Another Location

Airport:

Trip Planner

Search our weather history database for the weather conditions in past years. The results will help you decide how hot, cold, wet, or windy it might be!

Date:

Astronomy

Jan. 08, 2013 Rise Set
Actual Time 8:01 AM CST 5:02 PM CST
Civil Twilight 7:28 AM CST 5:35 PM CST
Nautical Twilight 6:51 AM CST 6:12 PM CST
Astronomical Twilight 6:16 AM CST 6:47 PM CST
Moon 4:35 AM CST (1/8) 2:06 PM CST (1/8)
Length of Visible Light 10h 07m
Length of Day
9h 01m
Waning Crescent, 13% of the Moon is Illuminated
Jan 8
Waning Crescent
Jan 11
New
Jan 18
First Quarter
Jan 26
Full
Feb 3
Last Quarter

Hourly Weather History & Observations

Time (CST) Temp. Windchill Dew Point Humidity Pressure Visibility Wind Dir Wind Speed Gust Speed Precip Events Conditions
12:16 AM 24.3 °F 19.9 °F 19.2 °F 81% 29.94 in 10.0 mi WNW 3.5 mph - N/A   Clear
12:55 AM 24.1 °F 19.7 °F 20.1 °F 85% 29.93 in 10.0 mi WSW 3.5 mph - N/A   Clear
1:16 AM 23.5 °F 19.1 °F 19.2 °F 84% 29.92 in 10.0 mi WSW 3.5 mph - N/A   Clear
1:35 AM 21.7 °F - 18.0 °F 85% 29.91 in 10.0 mi Calm Calm - N/A   Clear
1:55 AM 18.1 °F 12.9 °F 16.3 °F 93% 29.91 in 10.0 mi SSE 3.5 mph - N/A   Clear
2:16 AM 19.4 °F - 17.4 °F 92% 29.90 in 10.0 mi Calm Calm - N/A   Clear
2:35 AM 17.6 °F 12.3 °F 16.0 °F 93% 29.91 in 10.0 mi SSE 3.5 mph - N/A   Clear
2:55 AM 16.9 °F 9.8 °F 14.0 °F 88% 29.91 in 10.0 mi SSE 4.6 mph - N/A   Clear
3:16 AM 21.6 °F 16.8 °F 17.8 °F 85% 29.90 in 10.0 mi SSE 3.5 mph - N/A   Clear
3:35 AM 20.1 °F - 16.2 °F 85% 29.89 in 10.0 mi Calm Calm - N/A   Clear
3:55 AM 19.0 °F 13.9 °F 15.6 °F 87% 29.89 in 10.0 mi SE 3.5 mph - N/A   Clear
4:16 AM 19.4 °F - 16.5 °F 89% 29.88 in 10.0 mi Calm Calm - N/A   Clear
4:35 AM 19.6 °F - 16.0 °F 86% 29.87 in 10.0 mi Calm Calm - N/A   Clear
4:55 AM 22.5 °F 17.8 °F 17.8 °F 82% 29.87 in 10.0 mi South 3.5 mph - N/A   Clear
5:15 AM 27.5 °F 22.2 °F 19.4 °F 72% 29.85 in 10.0 mi South 4.6 mph - N/A   Scattered Clouds
5:36 AM 26.2 °F 22.1 °F 19.2 °F 75% 29.85 in 10.0 mi SSE 3.5 mph - N/A   Scattered Clouds
5:55 AM 29.7 °F 24.7 °F 20.7 °F 69% 29.84 in 10.0 mi SSE 4.6 mph - N/A   Clear
6:15 AM 30.0 °F 24.1 °F 21.0 °F 69% 29.84 in 10.0 mi SSE 5.8 mph - N/A   Scattered Clouds
6:36 AM 28.4 °F 21.2 °F 21.2 °F 74% 29.84 in 10.0 mi SE 6.9 mph - N/A   Clear
6:55 AM 28.0 °F 21.7 °F 20.8 °F 74% 29.83 in 10.0 mi SSE 5.8 mph - N/A   Clear
7:16 AM 26.6 °F 19.1 °F 20.3 °F 77% 29.83 in 10.0 mi SE 6.9 mph - N/A   Clear
7:35 AM 29.8 °F 23.9 °F 20.1 °F 67% 29.82 in 10.0 mi SSE 5.8 mph - N/A   Clear
7:55 AM 28.4 °F 22.2 °F 19.6 °F 70% 29.82 in 10.0 mi South 5.8 mph - N/A   Clear
8:16 AM 31.3 °F 24.7 °F 21.4 °F 67% 29.81 in 10.0 mi SE 6.9 mph - N/A   Scattered Clouds
8:35 AM 31.1 °F 22.4 °F 22.1 °F 69% 29.81 in 10.0 mi South 10.4 mph - N/A   Mostly Cloudy
8:56 AM 30.7 °F 24.1 °F 23.0 °F 73% 29.82 in 10.0 mi SSE 6.9 mph - N/A   Overcast
9:15 AM 31.3 °F 25.6 °F 23.9 °F 74% 29.81 in 10.0 mi SSE 5.8 mph - N/A   Overcast
9:35 AM 32.0 °F 26.4 °F 25.3 °F 76% 29.81 in 10.0 mi SSW 5.8 mph - N/A   Overcast
9:55 AM 32.0 °F 27.5 °F 25.9 °F 78% 29.80 in 10.0 mi South 4.6 mph - N/A   Overcast
10:16 AM 32.9 °F 28.5 °F 27.3 °F 80% 29.79 in 10.0 mi South 4.6 mph - N/A   Overcast
10:35 AM 33.8 °F 27.0 °F 28.4 °F 81% 29.76 in 10.0 mi ESE 8.1 mph - N/A   Overcast
10:56 AM 32.9 °F 24.1 °F 28.4 °F 84% 29.73 in 10.0 mi ESE 11.5 mph - N/A   Overcast
11:15 AM 31.3 °F 22.1 °F 27.5 °F 86% 29.72 in 10.0 mi SE 11.5 mph - N/A   Overcast
11:35 AM 30.9 °F 23.5 °F 27.3 °F 86% 29.72 in 10.0 mi SE 8.1 mph - N/A   Overcast
11:56 AM 34.3 °F 30.2 °F 29.3 °F 82% 29.73 in 10.0 mi South 4.6 mph - N/A   Mostly Cloudy
12:15 PM 36.0 °F 29.6 °F 29.1 °F 76% 29.72 in 10.0 mi SSW 8.1 mph - N/A   Scattered Clouds
12:35 PM 35.8 °F 30.9 °F 28.6 °F 75% 29.70 in 10.0 mi South 5.8 mph - N/A   Mostly Cloudy
12:56 PM 34.7 °F 28.1 °F 29.1 °F 80% 29.69 in 10.0 mi SSE 8.1 mph - N/A   Overcast
1:15 PM 34.0 °F 28.8 °F 28.9 °F 82% 29.70 in 10.0 mi SW 5.8 mph - N/A   Overcast
1:56 PM 34.7 °F 25.9 °F 28.9 °F 79% 29.69 in 10.0 mi SW 12.7 mph 17.3 mph N/A   Scattered Clouds
2:15 PM 34.0 °F 25.0 °F 28.0 °F 79% 29.69 in 10.0 mi SW 12.7 mph 19.6 mph N/A   Scattered Clouds
2:35 PM 33.4 °F 25.9 °F 27.5 °F 79% 29.70 in 10.0 mi WSW 9.2 mph - N/A   Clear
2:56 PM 33.3 °F 27.9 °F 27.3 °F 79% 29.70 in 10.0 mi West 5.8 mph - N/A   Clear
3:16 PM 32.9 °F 22.8 °F 27.3 °F 80% 29.70 in 10.0 mi WSW 15.0 mph 20.7 mph N/A   Clear
3:35 PM 32.9 °F 25.3 °F 27.5 °F 81% 29.72 in 10.0 mi West 9.2 mph - N/A   Clear
3:55 PM 33.1 °F 24.4 °F 27.3 °F 79% 29.73 in 10.0 mi West 11.5 mph - N/A   Clear
4:15 PM 33.3 °F 23.2 °F 27.0 °F 78% 29.72 in 10.0 mi WSW 15.0 mph 20.7 mph N/A   Clear
4:36 PM 33.3 °F 22.1 °F 27.5 °F 79% 29.72 in 10.0 mi WSW 18.4 mph - N/A   Clear
4:56 PM 32.5 °F 21.2 °F 26.8 °F 79% 29.74 in 10.0 mi West 18.4 mph 27.6 mph N/A   Clear
5:15 PM 32.0 °F 19.5 °F 26.8 °F 81% 29.75 in 10.0 mi WSW 21.9 mph 26.5 mph N/A   Clear
5:35 PM 32.2 °F 21.1 °F 27.1 °F 82% 29.76 in 10.0 mi West 17.3 mph 23.0 mph N/A   Clear
5:55 PM 32.0 °F 21.6 °F 27.3 °F 83% 29.78 in 10.0 mi WNW 15.0 mph - N/A   Clear
6:15 PM 32.0 °F 22.1 °F 27.1 °F 82% 29.80 in 10.0 mi WNW 13.8 mph 21.9 mph N/A   Clear
6:36 PM 32.0 °F 20.5 °F 27.1 °F 82% 29.81 in 10.0 mi West 18.4 mph - N/A   Clear
6:56 PM 32.0 °F 21.2 °F 27.5 °F 83% 29.83 in 10.0 mi West 16.1 mph - N/A   Clear
7:15 PM 32.4 °F 20.9 °F 27.9 °F 83% 29.83 in 10.0 mi West 18.4 mph 25.3 mph N/A   Clear
7:55 PM 32.9 °F 21.6 °F 28.0 °F 82% 29.85 in 10.0 mi WSW 18.4 mph - N/A   Clear
8:16 PM 32.9 °F 23.2 °F 28.0 °F 82% 29.86 in 10.0 mi WSW 13.8 mph 20.7 mph N/A   Clear
8:35 PM 33.3 °F 23.7 °F 28.4 °F 82% 29.86 in 10.0 mi WSW 13.8 mph - N/A   Clear
8:56 PM 33.3 °F 23.7 °F 28.2 °F 82% 29.88 in 10.0 mi WSW 13.8 mph - N/A   Clear
9:15 PM 33.1 °F 24.9 °F 28.4 °F 83% 29.88 in 10.0 mi WSW 10.4 mph - N/A   Mostly Cloudy
9:36 PM 34.5 °F 26.2 °F 28.4 °F 78% 29.88 in 10.0 mi WSW 11.5 mph - N/A   Overcast
9:55 PM 36.7 °F 28.4 °F 29.5 °F 75% 29.90 in 10.0 mi West 12.7 mph 26.5 mph N/A   Overcast
10:15 PM 35.8 °F 29.4 °F 29.7 °F 78% 29.92 in 10.0 mi WNW 8.1 mph 18.4 mph N/A   Overcast
10:35 PM 35.4 °F 26.0 °F 29.3 °F 78% 29.92 in 10.0 mi West 15.0 mph - N/A   Mostly Cloudy
10:56 PM 35.1 °F 26.4 °F 29.7 °F 81% 29.94 in 10.0 mi West 12.7 mph - N/A   Mostly Cloudy
11:15 PM 35.8 °F 26.5 °F 29.3 °F 77% 29.94 in 10.0 mi West 15.0 mph 19.6 mph N/A   Mostly Cloudy
11:35 PM 35.8 °F 27.3 °F 29.1 °F 77% 29.96 in 10.0 mi West 12.7 mph - N/A   Mostly Cloudy
11:56 PM 35.6 °F 25.9 °F 29.5 °F 78% 29.96 in 10.0 mi WSW 16.1 mph - N/A   Overcast